Location: Limerick
(52.6800°N, 8.6400°W)
Time: 11:26:37
(UTC+01:00)

Amateur Radio Satellites - All Passes

Search period start: 25 June 2016 10:56
Search period end: 26 June 2016 10:56
Location: Limerick, 52.6800°N, 8.6400°W

Satellite Date Start Highest point End Downlink Frequencies (MHz)
Time Altitude Azimuth
CUSAT 1 25 Jun 10:57:40 11:03:53 27° 300° (WNW) 11:09:18 437.405
QB50P2 25 Jun 10:58:10 11:01:36 25° 62° (ENE) 11:05:03 145.880/145.840
POLYITAN 1 25 Jun 11:00:45 11:04:12 25° 62° (ENE) 11:07:40 437.675
UWE-3 25 Jun 11:02:11 11:06:42 83° 289° (WNW) 11:11:19 435.000/436.395/437.385
HUMSAT D 25 Jun 11:03:43 11:07:06 22° 91° (E) 11:10:28 437.325/437.525
DUCHIFAT 1 25 Jun 11:06:05 11:09:31 25° 62° (ENE) 11:12:57 145.980
Cosmos 2491 25 Jun 11:08:04 11:15:14 27° 54° (NE) 11:22:20 435.465 / 435.565
Oscar 11 25 Jun 11:08:28 11:12:52 85° 105° (ESE) 11:17:14 145.826/435.025
TIGRISAT 25 Jun 11:10:02 11:14:18 69° 257° (WSW) 11:18:43 435.000
FUNcube-1 25 Jun 11:10:17 11:14:48 80° 105° (ESE) 11:19:21 145.935
UNISAT 6 25 Jun 11:13:49 11:18:05 60° 258° (WSW) 11:22:28 437.425
O/OREOS (USA 219) 25 Jun 11:14:18 11:15:28 11° 27° (NNE) 11:16:38 437.305
CINEMA 3 25 Jun 11:19:19 11:22:28 20° 301° (WNW) 11:25:42 145.822/145.860
AAUSAT CUBESAT 2 25 Jun 11:32:35 11:36:10 28° 296° (WNW) 11:39:44 437.432
HO-68 25 Jun 11:33:35 11:40:05 38° 305° (NW) 11:46:35 435.675
AO-7 25 Jun 11:35:32 11:38:06 12° 7° (N) 11:40:42 29.400- 29.500
ISS 25 Jun 11:37:02 11:39:33 21° 147° (SSE) 11:42:05 145.825
BEESAT 3 25 Jun 11:41:26 11:45:14 42° 37° (NE) 11:49:01 437.485
CUBEBUG 2 25 Jun 11:43:05 11:46:58 29° 296° (WNW) 11:50:56 437.445
AUBIESAT-1 25 Jun 11:45:55 11:49:26 44° 297° (WNW) 11:53:12 437.475
CANX-2 25 Jun 11:46:45 11:48:17 12° 308° (NW) 11:49:50 2200.000
ANTELSAT 25 Jun 11:54:41 11:58:21 27° 267° (W) 12:02:06 437.575/2403.000
Oscar 19 25 Jun 11:56:28 11:58:53 13° 48° (NE) 12:01:17 437.125/150
JAS-2 25 Jun 12:02:53 12:09:46 40° 61° (ENE) 12:16:06 435.910
COMPASS 1 25 Jun 12:03:37 12:05:54 14° 305° (NW) 12:08:11 437.405
BEESAT 2 25 Jun 12:11:15 12:15:08 46° 39° (NE) 12:19:00 435.950
RS-15 25 Jun 12:11:23 12:20:23 28° 101° (E) 12:29:42 29.354- 29.394
PCSat 25 Jun 12:13:47 12:19:16 79° 50° (NE) 12:24:42 145.827
DELFI C3 25 Jun 12:17:32 12:21:19 40° 292° (WNW) 12:25:04 145.870
BUGSAT 1 25 Jun 12:18:10 12:22:06 57° 70° (ENE) 12:26:04 437.445
NANOSAT C BR1 25 Jun 12:18:13 12:22:23 70° 257° (WSW) 12:26:35 145.865
QB50P1 25 Jun 12:18:51 12:23:01 66° 257° (WSW) 12:27:14 145.935-145.965
AIST 2 25 Jun 12:19:40 12:22:30 17° 13° (NNE) 12:25:19 435.215
DX 1 25 Jun 12:21:27 12:23:42 14° 87° (E) 12:25:55 434.975-435.025
POPSAT HIP 1 25 Jun 12:21:42 12:25:52 63° 258° (WSW) 12:30:03 437.405
M-CUBED/EXP-1 PRIME 25 Jun 12:22:27 12:25:04 19° 305° (NW) 12:27:48 437.505
50 SAT 25 Jun 12:26:16 12:28:55 18° 91° (E) 12:31:32 437.505
DANDE 25 Jun 12:26:38 12:32:11 19° 311° (NW) 12:37:22 436.750
ZACube-1 25 Jun 12:27:18 12:30:52 24° 299° (WNW) 12:34:28 437.345
QB50P2 25 Jun 12:33:09 12:37:12 46° 261° (W) 12:41:18 145.880/145.840
POLYITAN 1 25 Jun 12:35:48 12:39:50 45° 261° (W) 12:43:54 437.675
HUMSAT D 25 Jun 12:38:49 12:43:01 52° 290° (WNW) 12:47:13 437.325/437.525
UWE-3 25 Jun 12:39:59 12:42:33 15° 305° (NW) 12:45:08 435.000/436.395/437.385
DUCHIFAT 1 25 Jun 12:41:02 12:45:01 44° 261° (W) 12:49:03 145.980
VELOX 1 25 Jun 12:42:01 12:45:43 26° 94° (E) 12:49:25 145.980
CUBEBUG 1 25 Jun 12:44:27 12:48:15 29° 95° (E) 12:52:02 437.445
Oscar 11 25 Jun 12:45:44 12:48:26 16° 304° (NW) 12:51:08 145.826/435.025
FUNcube-1 25 Jun 12:47:32 12:50:32 18° 303° (WNW) 12:53:33 145.935
O/OREOS (USA 219) 25 Jun 12:52:03 12:56:14 36° 50° (NE) 13:00:24 437.305
YUBILEINY 25 Jun 13:00:03 13:07:25 32° 80° (E) 13:14:49 435.215
ESTCUBE 1 25 Jun 13:01:29 13:05:58 58° 101° (E) 13:10:24 437.505/2401.250
Cosmos 2491 25 Jun 13:04:42 13:13:29 87° 80° (E) 13:22:13 435.465 / 435.565
ISS 25 Jun 13:12:21 13:15:35 58° 166° (SSE) 13:18:49 145.825
Gurwin Techsat 1B 25 Jun 13:18:34 13:22:55 26° 57° (ENE) 13:27:17 435.225
BEESAT 3 25 Jun 13:19:16 13:22:53 34° 238° (WSW) 13:26:29 437.485
AISAT 25 Jun 13:22:00 13:26:23 61° 102° (ESE) 13:30:43 437.250
AO-7 25 Jun 13:22:02 13:27:49 21° 34° (NE) 13:33:37 29.400- 29.500
HO-68 25 Jun 13:22:50 13:25:56 13° 328° (NNW) 13:29:02 435.675
Oscar 19 25 Jun 13:32:11 13:37:15 59° 68° (ENE) 13:42:19 437.125/150
UKube-1 25 Jun 13:43:42 13:47:59 62° 102° (ESE) 13:52:15 .
JAS-2 25 Jun 13:47:04 13:54:38 60° 259° (W) 14:01:33 435.910
ITAMSAT 1 25 Jun 13:47:46 13:51:32 20° 53° (NE) 13:55:18 435.822/435.867
BEESAT 2 25 Jun 13:49:19 13:52:53 31° 239° (WSW) 13:56:25 435.950
TISAT 1 25 Jun 13:52:43 13:55:40 18° 90° (E) 13:58:36 437.305
SPROUT 25 Jun 13:52:50 13:57:04 57° 101° (ESE) 14:01:18 437.525
BUGSAT 1 25 Jun 13:55:05 13:57:51 18° 269° (W) 14:00:37 437.445
DX 1 25 Jun 13:56:08 14:00:31 85° 284° (WNW) 14:04:50 434.975-435.025
PCSat 25 Jun 13:57:56 14:02:09 23° 250° (WSW) 14:06:19 145.827
AIST 2 25 Jun 13:58:03 14:02:00 40° 36° (NE) 14:05:57 435.215
50 SAT 25 Jun 13:59:15 14:02:52 48° 290° (WNW) 14:06:26 437.505
VELOX 1 25 Jun 14:18:12 14:22:23 45° 293° (WNW) 14:26:34 145.980
RS-15 25 Jun 14:19:26 14:30:58 80° 127° (SE) 14:43:10 29.354- 29.394
CUBEBUG 1 25 Jun 14:20:38 14:24:39 38° 294° (WNW) 14:28:38 437.445
ITUPSAT 1 25 Jun 14:29:47 14:30:30 10° 83° (E) 14:31:13 437.325
BEESAT 25 Jun 14:30:55 14:32:07 11° 83° (E) 14:33:19 436.000
O/OREOS (USA 219) 25 Jun 14:31:32 14:35:40 37° 251° (WSW) 14:39:46 437.305
ESTCUBE 1 25 Jun 14:38:55 14:42:27 23° 301° (WNW) 14:45:58 437.505/2401.250
Cosmos 2504 25 Jun 14:39:03 14:46:27 40° 84° (E) 14:54:18 435.465 / 435.565
ISS 25 Jun 14:48:40 14:51:56 72° 186° (S) 14:55:12 145.825
YUBILEINY 25 Jun 14:54:47 15:03:30 75° 284° (WNW) 15:12:19 435.215
Gurwin Techsat 1B 25 Jun 14:57:14 15:02:31 65° 258° (WSW) 15:07:50 435.225
AISAT 25 Jun 14:59:12 15:02:30 21° 302° (WNW) 15:05:47 437.250
Cosmos 2491 25 Jun 15:02:30 15:09:18 27° 283° (WNW) 15:16:06 435.465 / 435.565
AO-7 25 Jun 15:10:55 15:18:59 56° 58° (ENE) 15:27:06 29.400- 29.500
Oscar 19 25 Jun 15:12:44 15:16:57 25° 268° (W) 15:21:11 437.125/150
UKube-1 25 Jun 15:20:28 15:23:40 21° 302° (WNW) 15:26:51 .
ITAMSAT 1 25 Jun 15:25:10 15:30:24 86° 254° (WSW) 15:35:41 435.822/435.867
TISAT 1 25 Jun 15:27:34 15:31:43 60° 289° (WNW) 15:35:51 437.305
SPROUT 25 Jun 15:29:28 15:32:42 21° 300° (WNW) 15:35:56 437.525
DX 1 25 Jun 15:33:41 15:36:04 15° 306° (NW) 15:38:27 434.975-435.025
AIST 2 25 Jun 15:36:37 15:40:33 40° 236° (SW) 15:44:26 435.215
JAS-2 25 Jun 15:37:11 15:40:57 14° 279° (W) 15:44:35 435.910
SWISSCUBE 25 Jun 15:40:20 15:44:59 45° 99° (E) 15:49:34 437.505
ITUPSAT 1 25 Jun 16:04:29 16:09:19 65° 103° (ESE) 16:14:06 437.325
BEESAT 25 Jun 16:06:02 16:10:50 68° 103° (ESE) 16:15:37 436.000
KKS-1 25 Jun 16:20:15 16:22:58 16° 88° (E) 16:25:40 437.445
ISS 25 Jun 16:25:10 16:28:10 33° 205° (SSW) 16:31:09 145.825
NOAA 18 25 Jun 16:30:07 16:32:32 13° 44° (NE) 16:34:56 137.9125
Cosmos 2504 25 Jun 16:31:25 16:39:30 61° 288° (WNW) 16:48:11 435.465 / 435.565
RS-15 25 Jun 16:32:57 16:44:30 55° 337° (NNW) 16:56:34 29.354- 29.394
NOAA 15 25 Jun 16:41:45 16:44:56 16° 50° (NE) 16:48:07 137.62
Gurwin Techsat 1B 25 Jun 16:41:51 16:43:33 11° 278° (W) 16:45:14 435.225
HORYU 2 25 Jun 16:48:39 16:52:53 45° 67° (ENE) 16:57:09 437.375
YUBILEINY 25 Jun 16:55:27 17:02:05 23° 310° (NW) 17:08:48 435.215
STARS 25 Jun 17:02:19 17:05:40 21° 92° (E) 17:08:59 437.465
AO-7 25 Jun 17:04:03 17:12:00 47° 261° (W) 17:20:01 29.400- 29.500
Cubesat XI-IV 25 Jun 17:04:47 17:08:20 18° 51° (NE) 17:11:54 437.490
TISAT 1 25 Jun 17:05:45 17:06:32 10° 309° (NW) 17:07:20 437.305
ITAMSAT 1 25 Jun 17:07:35 17:10:40 16° 274° (W) 17:13:48 435.822/435.867
AIST 1 25 Jun 17:11:54 17:13:44 13° 81° (E) 17:15:33
BRITE-PL 25 Jun 17:16:18 17:19:58 21° 60° (ENE) 17:23:28 437.365/2234.400
SWISSCUBE 25 Jun 17:18:26 17:22:38 31° 299° (WNW) 17:26:50 437.505
MOZHAYETS 4 25 Jun 17:18:37 17:23:10 48° 99° (E) 17:27:39
CUTE-I 25 Jun 17:38:59 17:43:33 30° 59° (ENE) 17:48:10 437.470
ITUPSAT 1 25 Jun 17:43:00 17:46:46 23° 303° (WNW) 17:50:31 437.325
BEESAT 25 Jun 17:44:32 17:48:13 22° 303° (WNW) 17:51:52 436.000
DANDE 25 Jun 17:51:09 17:52:42 11° 36° (NE) 17:54:12 436.750
DOVE 4 25 Jun 17:53:30 17:54:15 10° 52° (NE) 17:55:00 437.250
KKS-1 25 Jun 17:55:38 18:00:06 77° 287° (WNW) 18:04:32 437.445
CUSAT 1 25 Jun 18:03:04 18:05:33 14° 49° (NE) 18:07:45 437.405
NOAA 18 25 Jun 18:06:46 18:12:03 52° 65° (ENE) 18:17:23 137.9125
GOMX 1 25 Jun 18:08:47 18:12:35 27° 63° (ENE) 18:16:13 467.674
SO-50 25 Jun 18:09:15 18:14:01 53° 126° (SE) 18:18:46 436.795
NOAA 15 25 Jun 18:18:37 18:23:54 72° 70° (ENE) 18:29:11 137.62
LilacSat-2 25 Jun 18:21:56 18:25:31 43° 70° (ENE) 18:29:11 437.200
HORYU 2 25 Jun 18:25:56 18:29:39 26° 266° (W) 18:33:24 437.375
Cosmos 2504 25 Jun 18:29:21 18:35:07 20° 315° (NW) 18:41:06 435.465 / 435.565
HO-68 25 Jun 18:34:40 18:40:12 25° 47° (NE) 18:45:45 435.675
CUBESAT XI-V 25 Jun 18:36:10 18:40:33 39° 96° (E) 18:44:52 437.345
STARS 25 Jun 18:38:03 18:42:22 56° 291° (WNW) 18:46:41 437.465
Cubesat XI-IV 25 Jun 18:42:19 18:47:40 80° 72° (ENE) 18:53:04 437.490
AIST 1 25 Jun 18:46:18 18:50:39 88° 285° (WNW) 18:54:59
RS-15 25 Jun 18:48:14 18:59:52 49° 10° (N) 19:11:46 29.354- 29.394
BRITE-PL 25 Jun 18:53:02 18:58:07 71° 258° (WSW) 19:02:49 437.365/2234.400
MOZHAYETS 4 25 Jun 18:56:11 19:00:08 28° 298° (WNW) 19:04:04
GONETS M04 25 Jun 18:56:18 19:04:07 39° 84° (E) 19:11:55
AO-7 25 Jun 19:06:32 19:07:09 10° 284° (WNW) 19:07:47 29.400- 29.500
CINEMA 3 25 Jun 19:13:36 19:16:24 18° 58° (ENE) 19:19:14 145.822/145.860
CUTE-I 25 Jun 19:18:05 19:23:21 57° 259° (W) 19:28:40 437.470
Cosmos 2499 25 Jun 19:26:03 19:33:37 40° 84° (E) 19:41:35 435.465 / 435.565
DOVE 4 25 Jun 19:26:55 19:31:13 62° 71° (ENE) 19:35:21 437.250
DANDE 25 Jun 19:32:00 19:37:52 41° 63° (ENE) 19:42:18 436.750
CANX-2 25 Jun 19:32:11 19:35:45 26° 63° (ENE) 19:39:22 2200.000
KKS-1 25 Jun 19:33:42 19:35:58 14° 307° (NW) 19:38:14 437.445
CUBEBUG 2 25 Jun 19:36:47 19:38:20 12° 52° (NE) 19:39:53 437.445
CUSAT 1 25 Jun 19:44:04 19:48:46 85° 260° (W) 19:52:17 437.405
GOMX 1 25 Jun 19:46:04 19:50:33 46° 261° (W) 19:54:46 467.674
NOAA 18 25 Jun 19:48:08 19:52:58 32° 265° (W) 19:57:51 137.9125
COMPASS 1 25 Jun 19:48:49 19:51:52 20° 59° (ENE) 19:54:56 437.405
SO-50 25 Jun 19:50:04 19:54:42 41° 327° (NNW) 19:59:17 436.795
CUTE 1.7 + AOD 2 25 Jun 19:52:31 19:56:24 34° 66° (ENE) 20:00:19 437.475
LilacSat-2 25 Jun 19:57:11 20:00:04 20° 268° (W) 20:02:59 437.200
NOAA 15 25 Jun 20:00:12 20:04:13 22° 270° (W) 20:08:15 137.62
SEEDS 25 Jun 20:03:15 20:07:04 33° 65° (ENE) 20:10:54 437.485
M-CUBED/EXP-1 PRIME 25 Jun 20:06:10 20:08:47 22° 57° (ENE) 20:11:25 437.505
STRAND 1 25 Jun 20:06:19 20:10:38 26° 92° (E) 20:14:56 437.568
CUBESAT XI-V 25 Jun 20:13:43 20:17:54 33° 296° (WNW) 20:22:01 437.345
STARS 25 Jun 20:16:52 20:17:51 11° 310° (NW) 20:18:50 437.465
ZACube-1 25 Jun 20:18:09 20:20:27 14° 55° (NE) 20:22:47 437.345
HO-68 25 Jun 20:19:52 20:27:02 82° 69° (ENE) 20:34:15 435.675
Cubesat XI-IV 25 Jun 20:24:37 20:28:23 19° 272° (W) 20:32:13 437.490
AIST 1 25 Jun 20:26:48 20:28:58 13° 301° (WNW) 20:31:08
UWE-3 25 Jun 20:29:39 20:33:00 23° 61° (ENE) 20:36:25 435.000/436.395/437.385
Oscar 11 25 Jun 20:34:02 20:37:17 21° 59° (ENE) 20:40:32 145.826/435.025
BRITE-PL 25 Jun 20:35:46 20:37:22 11° 275° (W) 20:38:56 437.365/2234.400
FUNcube-1 25 Jun 20:36:53 20:39:53 19° 58° (ENE) 20:42:56 145.935
CINEMA 3 25 Jun 20:49:01 20:53:08 66° 257° (WSW) 20:57:19 145.822/145.860
GONETS M04 25 Jun 20:51:59 21:00:36 62° 288° (WNW) 21:09:14
AAUSAT CUBESAT 2 25 Jun 20:52:23 20:56:29 56° 71° (ENE) 21:00:38 437.432
RS-15 25 Jun 21:02:06 21:14:26 77° 41° (NE) 21:26:49 29.354- 29.394
AUBIESAT-1 25 Jun 21:03:34 21:06:52 76° 67° (ENE) 21:10:14 437.475
DOVE 4 25 Jun 21:06:26 21:09:20 17° 270° (W) 21:12:12 437.250
CANX-2 25 Jun 21:07:19 21:11:26 44° 262° (W) 21:15:36 2200.000
CUBEBUG 2 25 Jun 21:10:01 21:14:10 70° 73° (ENE) 21:18:26 437.445
DANDE 25 Jun 21:15:13 21:20:36 35° 273° (W) 21:24:44 436.750
Cosmos 2499 25 Jun 21:18:07 21:26:25 62° 288° (WNW) 21:35:13 435.465 / 435.565
COMPASS 1 25 Jun 21:22:52 21:27:03 62° 259° (WSW) 21:31:17 437.405
CUTE 1.7 + AOD 2 25 Jun 21:28:24 21:32:16 32° 265° (W) 21:36:10 437.475
SO-50 25 Jun 21:32:40 21:36:22 21° 350° (N) 21:40:00 436.795
DELFI C3 25 Jun 21:34:17 21:37:55 33° 66° (ENE) 21:41:34 145.870
PRISM 25 Jun 21:38:44 21:42:22 29° 96° (E) 21:45:57 437.425
SEEDS 25 Jun 21:38:53 21:42:46 34° 264° (W) 21:46:41 437.485
M-CUBED/EXP-1 PRIME 25 Jun 21:40:18 21:43:17 32° 256° (WSW) 21:46:17 437.505
STRAND 1 25 Jun 21:45:06 21:50:10 57° 292° (WNW) 21:55:12 437.568
ZACube-1 25 Jun 21:51:53 21:56:06 87° 70° (ENE) 22:00:26 437.345
HUMSAT D 25 Jun 22:00:28 22:04:11 32° 64° (ENE) 22:07:58 437.325/437.525
AO-85 25 Jun 22:04:04 22:05:07 11° 106° (ESE) 22:06:10 145.980
UWE-3 25 Jun 22:05:08 22:09:13 49° 261° (W) 22:13:24 435.000/436.395/437.385
Oscar 11 25 Jun 22:08:45 22:13:03 61° 259° (WSW) 22:17:23 145.826/435.025
HO-68 25 Jun 22:09:46 22:15:34 26° 270° (W) 22:21:25 435.675
FUNcube-1 25 Jun 22:11:32 22:15:43 65° 259° (W) 22:20:00 145.935
AAUSAT CUBESAT 2 25 Jun 22:29:16 22:32:20 19° 270° (W) 22:35:24 437.432
ESTCUBE 1 25 Jun 22:31:38 22:34:45 19° 56° (ENE) 22:37:53 437.505/2401.250
CUBEBUG 2 25 Jun 22:48:48 22:51:20 16° 272° (W) 22:53:56 437.445
AISAT 25 Jun 22:50:16 22:53:18 19° 57° (ENE) 22:56:22 437.250
GONETS M04 25 Jun 22:53:42 22:59:36 19° 314° (NW) 23:05:32
TIGRISAT 25 Jun 22:56:04 22:59:12 18° 89° (E) 23:02:21 435.000
UNISAT 6 25 Jun 22:59:48 23:03:13 20° 90° (E) 23:06:39 437.425
YUBILEINY 25 Jun 23:00:56 23:07:52 25° 52° (NE) 23:14:47 435.215
DELFI C3 25 Jun 23:09:12 23:12:47 31° 265° (W) 23:16:26 145.870
UKube-1 25 Jun 23:09:31 23:12:26 18° 57° (ENE) 23:15:23 .
50 SAT 25 Jun 23:09:45 23:12:39 22° 62° (ENE) 23:15:35 437.505
PRISM 25 Jun 23:13:59 23:17:45 35° 295° (WNW) 23:21:28 437.425
SO-50 25 Jun 23:14:32 23:18:22 23° 15° (NNE) 23:22:07 436.795
RS-15 25 Jun 23:15:02 23:26:24 47° 248° (WSW) 23:37:46 29.354- 29.394
Cosmos 2499 25 Jun 23:15:43 23:21:43 20° 314° (NW) 23:27:55 435.465 / 435.565
SPROUT 25 Jun 23:18:20 23:20:46 15° 55° (NE) 23:23:12 437.525
DX 1 25 Jun 23:21:58 23:25:35 26° 61° (ENE) 23:29:13 434.975-435.025
STRAND 1 25 Jun 23:26:02 23:28:21 13° 313° (NW) 23:30:39 437.568
ZACube-1 25 Jun 23:31:08 23:33:05 13° 275° (W) 23:35:01 437.345
HUMSAT D 25 Jun 23:35:58 23:39:47 34° 264° (W) 23:43:40 437.325/437.525
ANTELSAT 25 Jun 23:39:09 23:43:33 42° 98° (E) 23:47:59 437.575/2403.000
AO-85 25 Jun 23:39:23 23:44:38 52° 125° (SE) 23:49:38 145.980
VELOX 1 25 Jun 23:44:39 23:48:54 48° 68° (ENE) 23:53:09 145.980
CUBEBUG 1 25 Jun 23:45:46 23:49:59 51° 69° (ENE) 23:54:13 437.445
NANOSAT C BR1 25 Jun 23:58:05 00:00:06 13° 87° (E) 00:02:07 145.865
QB50P1 25 Jun 23:58:52 00:01:07 14° 87° (E) 00:03:22 145.935-145.965
POPSAT HIP 1 26 Jun 00:01:37 00:04:01 15° 88° (E) 00:06:25 437.405
ESTCUBE 1 26 Jun 00:06:31 00:11:03 77° 255° (WSW) 00:15:39 437.505/2401.250
QB50P2 26 Jun 00:12:31 00:15:39 20° 91° (E) 00:18:45 145.880/145.840
POLYITAN 1 26 Jun 00:15:06 00:18:16 20° 91° (E) 00:21:26 437.675
DUCHIFAT 1 26 Jun 00:19:33 00:22:39 19° 91° (E) 00:25:44 145.980
Cosmos 2491 26 Jun 00:19:43 00:25:53 22° 74° (ENE) 00:32:03 435.465 / 435.565
Cosmos 2504 26 Jun 00:23:12 00:30:21 26° 52° (NE) 00:37:24 435.465 / 435.565
AISAT 26 Jun 00:24:55 00:29:20 73° 256° (WSW) 00:33:45 437.250
TIGRISAT 26 Jun 00:31:47 00:36:22 72° 288° (WNW) 00:41:01 435.000
UNISAT 6 26 Jun 00:35:47 00:40:20 64° 289° (WNW) 00:44:56 437.425
50 SAT 26 Jun 00:42:35 00:46:08 42° 261° (W) 00:49:44 437.505
UKube-1 26 Jun 00:43:43 00:48:01 74° 256° (WSW) 00:52:22 .
TISAT 1 26 Jun 00:49:44 00:53:22 29° 64° (ENE) 00:57:00 437.305
SPROUT 26 Jun 00:51:52 00:56:08 89° 255° (WSW) 01:00:25 437.525
JAS-2 26 Jun 00:52:28 00:55:45 15° 81° (E) 00:58:51 435.910
SO-50 26 Jun 00:55:08 00:59:50 54° 38° (NE) 01:04:21 436.795
DX 1 26 Jun 00:57:25 01:01:36 46° 260° (W) 01:05:49 434.975-435.025
YUBILEINY 26 Jun 00:57:27 01:06:20 78° 78° (ENE) 01:15:12 435.215
ANTELSAT 26 Jun 01:16:07 01:20:09 31° 297° (WNW) 01:24:14 437.575/2403.000
SWISSCUBE 26 Jun 01:16:40 01:20:00 19° 55° (NE) 01:23:20 437.505
AO-85 26 Jun 01:20:10 01:25:17 44° 325° (NW) 01:30:08 145.980
VELOX 1 26 Jun 01:21:59 01:25:36 25° 267° (W) 01:29:15 145.980
CUBEBUG 1 26 Jun 01:23:06 01:26:33 23° 268° (W) 01:30:01 437.445
BUGSAT 1 26 Jun 01:29:10 01:33:03 42° 99° (E) 01:36:58 437.445
RS-15 26 Jun 01:31:58 01:35:22 12° 273° (W) 01:38:47 29.354- 29.394
NANOSAT C BR1 26 Jun 01:32:12 01:36:27 86° 287° (WNW) 01:40:42 145.865
QB50P1 26 Jun 01:33:12 01:37:28 81° 286° (WNW) 01:41:43 145.935-145.965
POPSAT HIP 1 26 Jun 01:36:06 01:40:21 77° 288° (WNW) 01:44:37 437.405
Oscar 19 26 Jun 01:39:17 01:41:38 13° 84° (E) 01:43:59 437.125/150
ITUPSAT 1 26 Jun 01:40:22 01:44:18 25° 59° (ENE) 01:48:13 437.325
BEESAT 26 Jun 01:41:34 01:45:30 26° 59° (ENE) 01:49:28 436.000
ESTCUBE 1 26 Jun 01:47:05 01:48:40 12° 275° (W) 01:50:15 437.505/2401.250
QB50P2 26 Jun 01:47:37 01:51:48 57° 289° (WNW) 01:55:59 145.880/145.840
POLYITAN 1 26 Jun 01:50:14 01:54:25 56° 290° (WNW) 01:58:36 437.675
DUCHIFAT 1 26 Jun 01:54:32 01:58:41 56° 290° (WNW) 02:02:50 145.980
AISAT 26 Jun 02:05:52 02:06:38 10° 276° (W) 02:07:24 437.250
TIGRISAT 26 Jun 02:10:03 02:12:20 14° 307° (NW) 02:14:39 435.000
Cosmos 2491 26 Jun 02:12:37 02:21:23 80° 96° (E) 02:30:09 435.465 / 435.565
UNISAT 6 26 Jun 02:14:21 02:16:14 12° 309° (NW) 02:18:09 437.425
Cosmos 2504 26 Jun 02:16:20 02:25:20 80° 78° (ENE) 02:34:05 435.465 / 435.565
UKube-1 26 Jun 02:24:18 02:24:52 10° 275° (W) 02:25:27 .
TISAT 1 26 Jun 02:25:05 02:28:57 36° 263° (W) 02:32:51 437.305
SPROUT 26 Jun 02:31:00 02:32:45 12° 274° (W) 02:34:31 437.525
SO-50 26 Jun 02:35:56 02:40:09 33° 240° (WSW) 02:44:15 436.795
JAS-2 26 Jun 02:35:59 02:42:06 81° 105° (ESE) 02:47:32 435.910
MOZHAYETS 4 26 Jun 02:51:14 02:54:06 16° 54° (NE) 02:56:58
SWISSCUBE 26 Jun 02:52:26 02:57:14 83° 255° (WSW) 03:02:06 437.505
YUBILEINY 26 Jun 02:55:01 03:02:20 31° 281° (W) 03:09:39 435.215
PCSat 26 Jun 03:02:52 03:06:40 20° 108° (ESE) 03:10:29 145.827
AO-85 26 Jun 03:02:54 03:06:54 22° 348° (NNW) 03:10:44 145.980
BUGSAT 1 26 Jun 03:04:56 03:08:17 25° 298° (WNW) 03:11:39 437.445
Gurwin Techsat 1B 26 Jun 03:07:26 03:12:14 33° 95° (E) 03:17:00 435.225
NANOSAT C BR1 26 Jun 03:09:19 03:11:34 14° 305° (NW) 03:13:49 145.865
QB50P1 26 Jun 03:10:30 03:12:36 14° 306° (NW) 03:14:42 145.935-145.965
O/OREOS (USA 219) 26 Jun 03:13:19 03:14:56 12° 97° (E) 03:16:32 437.305
POPSAT HIP 1 26 Jun 03:13:29 03:15:27 13° 306° (NW) 03:17:26 437.405
Oscar 19 26 Jun 03:16:43 03:21:53 75° 105° (ESE) 03:27:00 437.125/150
ITUPSAT 1 26 Jun 03:17:06 03:21:50 58° 259° (WSW) 03:26:37 437.325
BEESAT 26 Jun 03:18:19 03:23:01 55° 259° (W) 03:27:45 436.000
KKS-1 26 Jun 03:23:28 03:27:20 30° 63° (ENE) 03:31:13 437.445
QB50P2 26 Jun 03:26:14 03:26:45 10° 309° (NW) 03:27:16 145.880/145.840
POLYITAN 1 26 Jun 03:29:04 03:29:21 10° 310° (NW) 03:29:39 437.675
ITAMSAT 1 26 Jun 03:32:33 03:36:35 22° 90° (E) 03:40:35 435.822/435.867
STARS 26 Jun 04:04:16 04:08:18 38° 65° (ENE) 04:12:22 437.465
Cosmos 2504 26 Jun 04:10:29 04:17:54 31° 281° (W) 04:25:13 435.465 / 435.565
CUBESAT XI-V 26 Jun 04:10:29 04:12:57 14° 53° (NE) 04:15:24 437.345
Cosmos 2491 26 Jun 04:11:39 04:19:16 32° 302° (WNW) 04:26:53 435.465 / 435.565
JAS-2 26 Jun 04:21:48 04:26:28 24° 309° (NW) 04:30:48 435.910
MOZHAYETS 4 26 Jun 04:25:59 04:30:37 88° 79° (E) 04:35:19
SWISSCUBE 26 Jun 04:33:27 04:35:49 13° 274° (W) 04:38:12 437.505
PCSat 26 Jun 04:43:58 04:49:24 89° 307° (NW) 04:54:53 145.827
AO-85 26 Jun 04:45:04 04:48:57 22° 12° (NNE) 04:52:37 145.980
AIST 1 26 Jun 04:47:10 04:51:16 43° 73° (ENE) 04:55:19
Gurwin Techsat 1B 26 Jun 04:47:16 04:52:22 47° 295° (WNW) 04:57:27 435.225
O/OREOS (USA 219) 26 Jun 04:49:03 04:53:33 78° 116° (ESE) 04:58:03 437.305
BEESAT 3 26 Jun 04:51:51 04:55:41 55° 127° (SE) 04:59:34 437.485
Oscar 19 26 Jun 04:56:50 05:00:43 22° 304° (NW) 05:04:36 437.125/150
GONETS M04 26 Jun 04:57:55 05:05:16 29° 56° (NE) 05:12:36
AO-7 26 Jun 04:58:06 05:06:06 45° 99° (E) 05:14:02 29.400- 29.500
KKS-1 26 Jun 04:59:39 05:03:49 40° 262° (W) 05:08:01 437.445
Cosmos 2499 26 Jun 05:09:07 05:16:10 25° 52° (NE) 05:23:03 435.465 / 435.565
ITAMSAT 1 26 Jun 05:11:20 05:16:35 70° 290° (WNW) 05:21:47 435.822/435.867
BEESAT 2 26 Jun 05:23:16 05:27:11 63° 129° (SE) 05:31:09 435.950
STARS 26 Jun 05:40:54 05:44:46 30° 265° (W) 05:48:39 437.465
CUBESAT XI-V 26 Jun 05:44:52 05:49:34 73° 73° (ENE) 05:54:16 437.345
STRAND 1 26 Jun 05:51:46 05:54:34 15° 49° (NE) 05:57:22 437.568
MOZHAYETS 4 26 Jun 06:05:55 06:08:29 15° 274° (W) 06:11:03
HORYU 2 26 Jun 06:09:51 06:14:06 39° 98° (E) 06:18:19 437.375
Cosmos 2491 26 Jun 06:18:18 06:19:56 11° 333° (NNW) 06:21:34 435.465 / 435.565
NOAA 18 26 Jun 06:24:16 06:26:47 13° 84° (E) 06:29:18 137.9125
AIST 1 26 Jun 06:25:14 06:28:38 24° 273° (W) 06:32:01
AO-85 26 Jun 06:25:51 06:30:33 48° 37° (NE) 06:34:49 145.980
NOAA 15 26 Jun 06:28:44 06:32:06 17° 87° (E) 06:35:26 137.62
PCSat 26 Jun 06:28:47 06:33:30 29° 331° (NNW) 06:38:14 145.827
Gurwin Techsat 1B 26 Jun 06:29:27 06:31:09 12° 316° (NW) 06:32:51 435.225
O/OREOS (USA 219) 26 Jun 06:30:01 06:33:30 21° 318° (NW) 06:36:58 437.305
BEESAT 3 26 Jun 06:30:04 06:33:36 31° 328° (NNW) 06:37:11 437.485
AO-7 26 Jun 06:50:59 06:59:09 58° 301° (WNW) 07:07:17 29.400- 29.500
ITAMSAT 1 26 Jun 06:52:09 06:55:12 16° 311° (NW) 06:58:15 435.822/435.867
BRITE-PL 26 Jun 06:52:22 06:55:35 21° 91° (E) 06:58:46 437.365/2234.400
Cubesat XI-IV 26 Jun 06:54:08 06:58:09 21° 89° (E) 07:02:09 437.490
GONETS M04 26 Jun 06:54:34 07:03:20 87° 262° (W) 07:12:05
BEESAT 2 26 Jun 07:01:50 07:05:20 29° 330° (NNW) 07:08:52 435.950
Cosmos 2499 26 Jun 07:01:59 07:10:58 78° 77° (ENE) 07:19:31 435.465 / 435.565
DANDE 26 Jun 07:08:58 07:09:59 10° 70° (ENE) 07:10:59 436.750
CUSAT 1 26 Jun 07:10:51 07:15:28 18° 82° (E) 07:19:41 437.405
AIST 2 26 Jun 07:16:59 07:21:02 58° 127° (SE) 07:25:07 435.215
LilacSat-2 26 Jun 07:23:36 07:27:03 29° 95° (E) 07:30:29 437.200
CUBESAT XI-V 26 Jun 07:24:17 07:27:29 18° 272° (W) 07:30:41 437.345
STRAND 1 26 Jun 07:27:46 07:32:52 66° 70° (ENE) 07:38:00 437.568
CUTE-I 26 Jun 07:28:57 07:33:58 37° 96° (E) 07:38:57 437.470
GOMX 1 26 Jun 07:41:27 07:45:07 29° 95° (E) 07:48:50 467.674
HO-68 26 Jun 07:44:38 07:46:03 11° 78° (ENE) 07:47:27 435.675
HORYU 2 26 Jun 07:46:37 07:50:35 32° 297° (WNW) 07:54:34 437.375
NOAA 18 26 Jun 08:02:56 08:08:29 69° 104° (ESE) 08:14:02 137.9125
AO-85 26 Jun 08:06:38 08:10:56 36° 239° (WSW) 08:14:52 145.980
NOAA 15 26 Jun 08:07:19 08:12:38 89° 289° (WNW) 08:17:53 137.62
BEESAT 3 26 Jun 08:10:03 08:12:26 15° 351° (N) 08:14:48 437.485
PCSat 26 Jun 08:14:58 08:18:39 18° 357° (N) 08:22:20 145.827
BRITE-PL 26 Jun 08:30:21 08:34:27 48° 291° (WNW) 08:38:26 437.365/2234.400
Cubesat XI-IV 26 Jun 08:33:25 08:38:50 76° 289° (WNW) 08:44:13 437.490
PRISM 26 Jun 08:33:25 08:37:26 48° 68° (ENE) 08:41:27 437.425
CINEMA 3 26 Jun 08:37:39 08:40:54 19° 90° (E) 08:44:12 145.822/145.860
BEESAT 2 26 Jun 08:41:59 08:44:22 15° 353° (N) 08:46:45 435.950
DANDE 26 Jun 08:43:23 08:51:06 42° 90° (E) 08:58:13 436.750
AO-7 26 Jun 08:44:28 08:50:21 22° 325° (NW) 08:56:15 29.400- 29.500
CANX-2 26 Jun 08:46:39 08:50:03 22° 91° (E) 08:53:25 2200.000
CUSAT 1 26 Jun 08:49:06 08:56:48 71° 100° (E) 09:03:15 437.405
GONETS M04 26 Jun 08:52:29 08:58:59 24° 284° (WNW) 09:05:30
Cosmos 2499 26 Jun 08:55:52 09:03:18 32° 281° (W) 09:10:29 435.465 / 435.565
AIST 2 26 Jun 08:56:02 08:59:46 31° 328° (NNW) 09:03:32 435.215
DOVE 4 26 Jun 08:56:42 09:00:56 75° 103° (ESE) 09:05:19 437.250
CUBEBUG 2 26 Jun 08:56:47 08:58:00 11° 84° (E) 08:59:11 437.445
LilacSat-2 26 Jun 08:57:55 09:01:22 31° 294° (WNW) 09:04:49 437.200
COMPASS 1 26 Jun 09:00:53 09:03:21 15° 88° (E) 09:05:47 437.405
CUTE 1.7 + AOD 2 26 Jun 09:07:00 09:10:49 30° 94° (E) 09:14:35 437.475
STRAND 1 26 Jun 09:08:31 09:12:31 22° 270° (W) 09:16:33 437.568
CUTE-I 26 Jun 09:09:02 09:14:06 43° 296° (WNW) 09:19:10 437.470
ANTELSAT 26 Jun 09:10:02 09:12:01 13° 52° (NE) 09:14:00 437.575/2403.000
SEEDS 26 Jun 09:16:35 09:20:17 27° 94° (E) 09:23:55 437.485
GOMX 1 26 Jun 09:19:32 09:23:20 35° 294° (WNW) 09:27:10 467.674
HO-68 26 Jun 09:28:36 09:35:37 50° 100° (E) 09:42:34 435.675
ZACube-1 26 Jun 09:35:39 09:37:39 13° 85° (E) 09:39:39 437.345
NOAA 18 26 Jun 09:44:12 09:48:45 27° 304° (NW) 09:53:17 137.9125
NOAA 15 26 Jun 09:48:06 09:51:45 19° 308° (NW) 09:55:24 137.62
UWE-3 26 Jun 09:48:40 09:52:19 23° 92° (E) 09:55:59 435.000/436.395/437.385
BEESAT 3 26 Jun 09:48:53 09:51:33 17° 15° (NNE) 09:54:12 437.485
Oscar 11 26 Jun 09:50:47 09:53:42 17° 89° (E) 09:56:36 145.826/435.025
FUNcube-1 26 Jun 09:54:07 09:57:09 18° 89° (E) 10:00:13 145.935
PCSat 26 Jun 09:59:35 10:03:57 24° 22° (NNE) 10:08:20 145.827
TIGRISAT 26 Jun 10:00:18 10:04:02 29° 63° (ENE) 10:07:52 435.000
AAUSAT CUBESAT 2 26 Jun 10:04:06 10:08:11 46° 99° (E) 10:12:11 437.432
UNISAT 6 26 Jun 10:04:14 10:08:07 33° 64° (ENE) 10:12:06 437.425
PRISM 26 Jun 10:09:42 10:12:59 22° 267° (W) 10:16:18 437.425
AUBIESAT-1 26 Jun 10:10:30 10:13:26 21° 100° (E) 10:16:28 437.475
CINEMA 3 26 Jun 10:14:03 10:18:25 63° 288° (WNW) 10:22:58 145.822/145.860
Cubesat XI-IV 26 Jun 10:14:41 10:18:06 17° 310° (NW) 10:21:33 437.490
Cosmos 2491 26 Jun 10:19:21 10:24:55 18° 43° (NE) 10:30:27 435.465 / 435.565
BEESAT 2 26 Jun 10:20:50 10:23:38 18° 17° (NNE) 10:26:26 435.950
CANX-2 26 Jun 10:22:00 10:26:12 51° 290° (WNW) 10:30:21 2200.000
DANDE 26 Jun 10:25:28 10:33:49 61° 289° (WNW) 10:41:22 436.750
CUBEBUG 2 26 Jun 10:30:52 10:35:24 72° 103° (ESE) 10:40:02 437.445
CUSAT 1 26 Jun 10:32:40 10:39:18 32° 296° (WNW) 10:44:58 437.405
COMPASS 1 26 Jun 10:35:12 10:39:27 74° 287° (WNW) 10:43:37 437.405
DOVE 4 26 Jun 10:35:31 10:38:13 17° 302° (WNW) 10:40:58 437.250
AIST 2 26 Jun 10:36:48 10:39:26 16° 352° (N) 10:42:05 435.215
AO-7 26 Jun 10:37:27 10:40:06 12° 352° (N) 10:42:45 29.400- 29.500
DELFI C3 26 Jun 10:40:47 10:44:04 23° 93° (E) 10:47:18 145.870
CUTE 1.7 + AOD 2 26 Jun 10:42:45 10:46:45 37° 293° (WNW) 10:50:42 437.475
ANTELSAT 26 Jun 10:43:39 10:47:57 73° 72° (ENE) 10:52:23 437.575/2403.000
ISS 26 Jun 10:45:18 10:47:02 14° 141° (SE) 10:48:48 145.825
M-CUBED/EXP-1 PRIME 26 Jun 10:46:46 10:50:24 54° 108° (ESE) 10:54:18 437.505
CUTE-I 26 Jun 10:51:46 10:52:53 11° 317° (NW) 10:54:00 437.470
BUGSAT 1 26 Jun 10:52:56 10:53:44 10° 52° (NE) 10:54:32 437.445
